Dewpoint
52 53 53 53 53 53 54 55 55 55 55 55 55 55 56 56 56 56 56 56 56 56 56 57 58 58 54 44 38 61 70 69 48 33 24 28 36 35 28 22 22 21 24 29 30 38 44
52 52 52 53 52 54 54 54 55 55 55 55 55 55 55 55 55 55 56 56 56 56 56 57 58 57 53 31 51 57 50 36 31 28 28 33 37 32 28 26 26 25 28 34 33 38 43
52 52 52 52 52 53 54 54 54 54 55 54 54 54 54 54 55 55 55 55 55 55 56 56 57 55 49 19 49 47 37 33 28 30 32 36 37 30 28 25 32 34 32 32 34 38 37
52 52 52 52 52 52 53 54 54 54 54 54 54 54 54 54 54 54 55 55 54 56 55 56 57 54 38 40 48 36 29 27 28 24 32 38 39 34 28 33 34 33 35 33 34 39 40
52 52 51 51 52 52 53 53 53 53 53 53 53 54 54 54 54 54 54 54 57 56 56 57 54 53 39 48 34 33 29 31 28 25 27 34 34 31 36 33 31 30 25 32 35 39 40
51 50 51 51 52 52 52 52 53 53 53 53 54 54 54 54 54 53 53 53 57 57 57 57 55 37 27 40 36 30 29 36 34 33 30 31 32 31 32 32 17 27 33 31 33 38 38
50 51 50 51 51 52 52 52 52 52 52 53 53 53 53 53 53 52 51 43 32 31 50 35 28 31 33 37 37 33 34 36 36 27 23 28 26 24 28 31 32 31 29 28 30 32 37
51 50 50 51 51 51 51 52 52 52 52 51 52 53 52 52 52 52 48 37 33 29 25 28 34 37 37 36 27 32 33 32 32 28 28 24 22 26 28 28 29 28 27 22 23 30 37
51 50 50 50 51 51 51 51 51 51 51 51 52 52 52 52 51 43 35 35 36 38 28 26 27 25 22 27 26 27 30 30 31 28 27 24 22 27 26 25 23 21 17 14 14 21 36
51 52 51 50 51 50 51 51 51 51 51 51 51 51 51 50 37 39 35 38 32 33 21 19 25 23 21 24 24 30 29 30 31 28 29 27 28 27 29 25 22 18 19 16 14 19 14
50 50 50 50 50 50 51 51 51 51 51 51 51 51 50 50 42 36 36 37 32 28 4 17 20 22 21 21 23 34 30 28 27 26 27 26 30 29 28 27 22 21 22 16 22 23 22
50 50 50 51 50 51 52 52 51 50 50 50 50 50 49 44 42 40 40 33 28 12 5 16 18 17 16 17 17 29 29 28 29 26 26 26 29 28 27 27 26 25 20 21 26 21 16
49 49 49 50 50 50 52 52 51 50 50 50 49 49 48 44 23 35 35 26 16 14 15 16 14 13 14 14 15 23 28 26 25 21 23 26 25 27 28 28 26 19 17 15 15 16 13
49 49 50 49 49 50 51 51 51 50 50 49 48 49 48 46 43 37 31 22 13 11 19 18 15 15 12 14 16 19 27 27 27 28 28 25 23 28 30 26 24 17 15 16 12 17 18
48 48 50 49 50 51 51 51 50 49 49 48 48 42 42 44 45 37 27 16 10 19 21 17 15 14 13 14 15 14 24 24 25 29 25 26 25 30 28 25 22 24 19 18 18 21 19
47 48 49 48 50 51 51 50 50 49 49 48 43 42 40 42 41 34 26 23 21 24 18 17 17 16 13 13 12 14 17 21 25 28 28 27 23 21 24 26 27 21 21 18 19 18 19
47 49 48 48 50 51 50 49 49 49 48 47 41 36 37 42 34 29 24 25 25 20 21 19 20 17 16 15 15 14 12 17 25 23 28 26 22 20 25 25 22 20 19 20 20 20 17
48 48 48 49 49 49 49 49 48 48 47 43 37 31 37 34 23 28 23 24 29 21 18 18 21 18 17 16 13 14 14 19 20 23 28 27 24 23 20 25 26 21 18 20 20 16 26
47 48 47 48 48 48 48 48 48 47 46 42 34 37 40 32 23 24 25 23 22 18 21 20 19 20 19 16 11 14 20 20 18 20 20 24 22 18 16 21 24 24 23 22 24 21 26
47 48 48 47 46 47 48 48 48 46 47 41 37 35 36 36 33 32 32 32 29 29 25 22 19 20 20 17 14 15 18 14 16 19 54 36 23 17 14 20 27 30 32 25 23 23 22
46 46 47 46 45 45 47 48 47 47 47 42 40 37 37 33 33 35 36 35 33 30 29 28 26 25 24 17 18 16 19 18 21 38 36 28 26 26 26 25 33 33 33 32 27 24 23
45 45 46 45 44 45 46 47 47 47 46 40 38 37 37 35 35 28 32 33 34 37 34 30 35 38 33 19 18 15 20 22 21 30 36 39 21 40 31 34 36 34 34 37 35 34 31
44 44 45 43 44 44 44 46 46 46 42 38 39 39 38 35 32 29 30 36 36 39 40 40 39 38 30 33 36 25 21 29 29 39 36 42 31 30 28 37 34 26 33 36 38 39 36
44 44 44 43 43 44 43 43 43 46 44 37 38 38 37 30 35 33 34 34 34 38 39 41 42 40 39 44 40 33 35 32 29 31 40 41 40 35 30 30 27 28 38 39 43 51 47
43 43 44 45 46 45 43 43 42 46 46 38 38 38 36 32 36 33 33 33 33 34 37 40 43 45 44 40 30 27 27 24 28 27 33 39 42 40 33 31 32 36 37 40 39 47 46
43 43 45 45 44 43 43 44 44 45 45 38 38 40 37 34 30 36 33 35 30 32 37 41 44 43 43 32 31 28 25 25 26 29 35 41 42 39 38 34 31 35 49 55 47 39 49
44 44 43 43 43 43 43 42 42 42 44 39 37 37 37 33 35 33 32 30 33 34 38 40 37 44 46 32 28 27 27 31 28 27 26 29 33 29 38 36 37 52 56 56 35 35 53
44 43 43 44 43 41 42 42 41 41 42 39 37 37 35 32 33 33 32 30 31 35 35 36 41 41 46 41 34 29 28 29 32 43 40 31 30 32 37 36 34 55 54 42 51 58 55
43 42 44 43 41 41 41 41 41 41 40 40 35 37 37 33 30 34 34 34 34 34 32 32 40 41 46 40 41 41 40 41 40 39 45 41 43 40 39 41 53 57 59 58 59 58 57
Lifted_Index
12 13 13 13 13 13 13 12 12 12 12 12 13 13 13 13 13 13 13 13 13 13 13 13 12 11 9 7 6 6 6 6 8 8 7 6 6 5 4 3 3 3 3 3 3 2 2
12 13 13 13 13 13 13 13 12 12 12 12 13 13 13 13 13 13 13 13 13 13 13 12 12 10 8 7 6 6 7 8 8 8 7 6 6 6 5 4 3 3 3 3 2 2 2
12 12 13 13 13 13 13 13 13 13 13 13 13 13 13 13 13 13 13 13 13 12 12 12 11 9 7 7 7 7 8 8 9 8 7 6 6 6 5 4 4 3 3 2 2 2 2
12 12 12 12 13 13 13 13 13 13 13 13 13 13 12 12 12 12 12 12 12 11 11 11 9 8 7 7 7 7 7 8 8 8 7 7 7 6 5 4 4 4 3 2 2 2 2
12 12 12 12 12 12 12 13 13 13 13 13 13 13 12 12 12 12 12 11 9 9 9 9 7 6 6 6 6 6 7 7 7 7 7 7 7 6 5 3 3 3 3 2 2 2 2
12 12 12 12 12 12 13 13 13 14 14 14 13 13 12 12 12 11 11 10 8 7 7 7 6 6 6 6 6 6 6 6 6 6 6 6 5 4 4 3 3 3 3 2 2 2 3
13 13 13 12 12 13 13 13 14 14 14 14 14 13 13 12 12 11 10 9 8 7 6 6 6 6 6 6 5 5 5 6 6 5 5 5 4 3 4 3 3 3 3 2 2 3 3
14 14 13 13 13 13 13 13 14 14 14 15 15 14 13 13 12 11 10 9 9 8 6 6 6 5 6 5 5 5 5 5 5 4 4 3 3 4 4 4 4 3 3 2 2 3 3
14 14 14 14 14 13 13 13 14 14 14 15 15 14 14 13 12 11 10 9 9 8 6 4 5 5 5 5 5 5 5 5 4 4 3 3 3 4 4 4 3 3 3 3 3 3 2
14 14 14 14 14 14 14 14 14 14 14 14 14 14 14 14 12 11 9 9 9 7 4 3 3 4 5 5 4 4 5 5 4 4 3 3 3 4 3 3 3 3 3 3 3 3 2
14 14 14 14 14 14 14 14 14 14 14 14 14 14 14 13 12 11 9 8 8 6 3 2 3 4 5 4 4 4 5 5 4 4 4 4 4 4 3 3 3 3 3 4 3 3 2
14 14 14 14 14 14 14 14 15 15 14 14 14 14 14 13 12 11 9 8 7 4 2 3 4 4 4 4 4 4 4 4 4 4 4 4 4 4 4 4 4 4 3 3 3 2 1
14 14 14 14 15 15 14 14 15 15 15 14 14 14 14 13 12 11 10 8 5 3 3 3 3 3 3 3 3 4 4 4 4 3 3 3 3 4 4 3 3 3 3 2 1 1 0
14 14 14 14 15 15 14 14 15 15 14 14 14 14 14 13 13 11 9 6 4 3 4 4 4 3 3 3 3 4 4 4 3 3 3 2 2 3 3 3 3 3 3 2 1 0 0
14 14 14 14 14 14 14 14 15 14 14 14 14 13 13 13 12 11 8 6 4 4 5 5 4 3 3 3 3 4 4 4 3 3 3 3 2 3 3 3 3 3 2 2 1 1 1
14 14 14 14 14 14 14 15 15 14 14 14 13 12 11 12 12 10 7 5 5 6 6 5 4 3 3 3 3 4 4 3 3 3 3 3 3 3 3 3 3 2 2 2 1 1 0
14 14 14 14 14 14 14 15 15 14 14 14 12 10 10 11 11 9 7 6 6 7 7 6 5 4 3 3 3 3 3 3 3 3 3 3 3 2 2 2 2 2 1 1 1 0 -0
13 13 14 14 14 14 15 15 15 14 14 13 11 9 10 10 9 8 7 7 7 7 7 7 6 5 4 4 3 3 3 3 3 3 3 3 3 2 1 1 1 1 1 1 1 0 -0
13 13 13 14 14 14 15 15 15 14 13 12 10 9 9 9 8 8 8 8 8 7 7 7 7 6 5 4 3 3 3 3 3 3 3 3 3 2 1 1 1 1 1 1 1 0 -0
12 13 13 13 14 14 14 15 15 14 12 10 9 8 8 8 8 8 8 8 7 7 7 7 7 6 6 5 4 3 3 2 2 2 2 3 3 2 1 1 1 0 0 0 0 0 -0
12 12 12 13 13 14 14 14 14 13 11 9 8 7 7 8 8 7 7 7 7 7 7 7 7 6 6 5 5 4 3 2 2 2 2 2 2 2 1 1 0 0 -0 -0 -0 -0 -0
12 12 12 12 13 13 13 13 14 13 11 9 8 8 7 7 7 7 7 7 7 6 6 6 6 5 6 6 5 4 4 3 2 2 1 1 1 1 1 1 1 0 -0 -1 -1 -1 -1
11 11 12 12 12 12 13 13 13 13 12 11 10 9 8 7 7 7 7 7 7 6 6 5 5 5 5 5 5 5 5 5 4 2 1 -0 -0 0 1 1 1 1 -0 -1 -2 -2 -1
11 11 11 11 11 12 12 12 13 13 12 12 11 10 9 8 8 7 7 7 7 6 6 5 4 4 5 5 5 5 5 5 4 3 2 0 -1 -0 0 0 1 0 -0 -1 -2 -3 -2
11 11 11 10 10 11 11 12 12 13 12 12 11 11 10 10 9 9 8 7 7 6 6 5 4 4 4 4 4 4 4 4 4 4 3 1 -1 -1 -1 -0 0 -0 -1 -2 -2 -3 -3
11 11 10 10 10 10 11 11 11 12 12 11 11 12 11 11 10 10 9 8 7 6 6 5 4 4 4 4 4 4 4 4 4 4 3 2 0 -1 -1 -1 -0 -1 -2 -2 -2 -2 -2
11 11 10 10 10 11 11 11 11 12 12 11 11 12 12 11 11 10 9 8 7 6 6 5 4 3 3 4 4 4 4 3 3 3 3 3 2 0 -0 -0 -0 -1 -3 -3 -2 -2 -3
11 11 10 10 11 11 11 11 11 12 12 12 11 11 12 11 11 10 9 8 7 6 6 5 4 2 2 3 3 3 3 3 2 2 2 2 2 1 0 0 -0 -2 -3 -3 -4 -4 -3
11 11 10 10 11 11 11 11 12 12 12 12 12 11 12 11 11 10 9 8 7 7 6 5 4 2 2 2 3 3 2 2 1 1 1 2 2 1 0 0 -1 -2 -3 -4 -5 -5 -4